Test XHTML 1.0 Strict Page for WU-History Testing
Histórico de la Estación METEOCORUÑA
 
Diario Datos del Julio 21, 2018 Unidades:  Metrico    Inglés   Ambos
« Prev Dia
Sig Dia »
Diario Semanal Mensual Anual Rango
  Actual: Max: Min: Media:
Temp: -9.3 °C -17.8 °C -9.3 °C -8.8 °C
Rocío: -10.6 °C -17.8 °C -10.6 °C -10.3 °C
Humedad: 86 % Humidity % 81 % 83 %
Vel. viento: 0 km/h 0 km/h 0 km/h 1.8 km/h
Racha: 0 km/h 0 km/h - -
Viento:Calm - - WNW
Presión: 34486.4 hPa 0 hPa 34486.4 hPa -
Lluvia: 0 mm      
Historical Graphs
 
 
Busqueda de Julio 21, 2018
Hora Temp Rocío Presión Viento Vel. viento Racha Humedad Ratio lluvia (/hora) Radiación
-17.8 °C -17.8 °C 0 hPa Calm     Humidity % 0 mm SolarRadiationWatts/m^2 W/m2
00:04 -8.2 °C -10.1 °C 34564.3 hPa NNW 2.6 km/h 15.6 km/h 81 % 0 mm 0.00 W/m2
00:09 -8.2 °C -10.1 °C 34560.9 hPa NW 2.6 km/h 10.3 km/h 81 % 0 mm 0.00 W/m2
00:14 -8.3 °C -10.1 °C 34560.9 hPa NW 2.6 km/h 15.6 km/h 81 % 0 mm 0.00 W/m2
00:19 -8.3 °C -10 °C 34560.9 hPa WNW 2.6 km/h 12.9 km/h 82 % 0 mm 0.00 W/m2
00:24 -8.3 °C -10 °C 34560.9 hPa NW 5.1 km/h 12.9 km/h 82 % 0 mm 0.00 W/m2
00:29 -8.3 °C -10.1 °C 34557.5 hPa WNW 2.6 km/h 12.9 km/h 82 % 0 mm 0.00 W/m2
00:34 -8.3 °C -10.1 °C 34557.5 hPa NW 2.6 km/h 12.9 km/h 82 % 0 mm 0.00 W/m2
00:39 -8.3 °C -10.1 °C 34557.5 hPa NW 2.6 km/h 10.3 km/h 82 % 0 mm 0.00 W/m2
00:44 -8.4 °C -10.1 °C 34557.5 hPa NW 5.1 km/h 12.9 km/h 82 % 0 mm 0.00 W/m2
00:49 -8.4 °C -10.1 °C 34554.1 hPa NW 5.1 km/h 12.9 km/h 82 % 0 mm 0.00 W/m2
00:54 -8.4 °C -10.1 °C 34557.5 hPa NW 5.1 km/h 12.9 km/h 82 % 0 mm 0.00 W/m2
00:59 -8.4 °C -10.2 °C 34554.1 hPa NW 5.1 km/h 10.3 km/h 81 % 0 mm 0.00 W/m2
01:04 -8.4 °C -10.2 °C 34557.5 hPa NW 5.1 km/h 7.7 km/h 81 % 0 mm 0.00 W/m2
01:09 -8.4 °C -10.2 °C 34557.5 hPa WNW 2.6 km/h 10.3 km/h 81 % 0 mm 0.00 W/m2
01:14 -8.4 °C -10.2 °C 34557.5 hPa WNW 2.6 km/h 7.7 km/h 81 % 0 mm 0.00 W/m2
01:19 -8.4 °C -10.2 °C 34557.5 hPa WNW 2.6 km/h 5.1 km/h 81 % 0 mm 0.00 W/m2
01:24 -8.4 °C -10.2 °C 34557.5 hPa Calm   2.6 km/h 81 % 0 mm 0.00 W/m2
01:29 -8.4 °C -10.3 °C 34554.1 hPa Calm     81 % 0 mm 0.00 W/m2
01:34 -8.5 °C -10.3 °C 34550.7 hPa Calm   2.6 km/h 81 % 0 mm 0.00 W/m2
01:39 -8.5 °C -10.2 °C 34550.7 hPa Calm     82 % 0 mm 0.00 W/m2
01:44 -8.6 °C -10.2 °C 34550.7 hPa Calm   2.6 km/h 83 % 0 mm 0.00 W/m2
01:49 -8.6 °C -10.2 °C 34547.4 hPa Calm   2.6 km/h 83 % 0 mm 0.00 W/m2
01:54 -8.6 °C -10.2 °C 34547.4 hPa Calm   2.6 km/h 83 % 0 mm 0.00 W/m2
01:59 -8.6 °C -10.2 °C 34544 hPa Calm   2.6 km/h 83 % 0 mm 0.00 W/m2
02:04 -8.6 °C -10.2 °C 34544 hPa Calm   2.6 km/h 83 % 0 mm 0.00 W/m2
02:09 -8.6 °C -10.1 °C 34544 hPa Calm   5.1 km/h 84 % 0 mm 0.00 W/m2
02:14 -8.6 °C -10.1 °C 34544 hPa WNW 2.6 km/h 5.1 km/h 84 % 0 mm 0.00 W/m2
02:19 -8.7 °C -10.1 °C 34540.6 hPa WNW 2.6 km/h 5.1 km/h 85 % 0 mm 0.00 W/m2
02:24 -8.7 °C -10.1 °C 34537.2 hPa WNW 2.6 km/h 7.7 km/h 85 % 0 mm 0.00 W/m2
02:29 -8.7 °C -10.1 °C 34540.6 hPa WNW 2.6 km/h 7.7 km/h 85 % 0 mm 0.00 W/m2
02:34 -8.7 °C -10.1 °C 34537.2 hPa WNW 2.6 km/h 10.3 km/h 85 % 0 mm 0.00 W/m2
02:39 -8.7 °C -10.1 °C 34537.2 hPa WNW 2.6 km/h 7.7 km/h 85 % 0 mm 0.00 W/m2
02:44 -8.7 °C -10.1 °C 34533.8 hPa WNW 2.6 km/h 7.7 km/h 85 % 0 mm 0.00 W/m2
02:49 -8.7 °C -10.1 °C 34533.8 hPa WNW 2.6 km/h 5.1 km/h 85 % 0 mm 0.00 W/m2
02:54 -8.7 °C -10.1 °C 34530.4 hPa WNW 2.6 km/h 7.7 km/h 85 % 0 mm 0.00 W/m2
02:59 -8.7 °C -10.1 °C 34527 hPa WNW 2.6 km/h 10.3 km/h 85 % 0 mm 0.00 W/m2
03:04 -8.7 °C -10.1 °C 34527 hPa West 2.6 km/h 10.3 km/h 86 % 0 mm 0.00 W/m2
03:09 -8.7 °C -10.1 °C 34523.7 hPa West 5.1 km/h 10.3 km/h 86 % 0 mm 0.00 W/m2
03:14 -8.8 °C -10.1 °C 34523.7 hPa West 2.6 km/h 10.3 km/h 86 % 0 mm 0.00 W/m2
03:19 -8.8 °C -9.9 °C 34520.3 hPa West 2.6 km/h 7.7 km/h 87 % 0 mm 0.00 W/m2
03:24 -8.8 °C -9.9 °C 34520.3 hPa West 2.6 km/h 10.3 km/h 87 % 0 mm 0.00 W/m2
03:29 -8.8 °C -9.9 °C 34520.3 hPa West 2.6 km/h 12.9 km/h 87 % 0 mm 0.00 W/m2
03:34 -8.8 °C -9.9 °C 34516.9 hPa West 5.1 km/h 10.3 km/h 87 % 0 mm 0.00 W/m2
03:39 -8.8 °C -10.1 °C 34516.9 hPa West 2.6 km/h 10.3 km/h 87 % 0 mm 0.00 W/m2
03:44 -8.8 °C -10.1 °C 34516.9 hPa West 2.6 km/h 5.1 km/h 87 % 0 mm 0.00 W/m2
03:49 -8.8 °C -10.1 °C 34513.5 hPa West 2.6 km/h 5.1 km/h 87 % 0 mm 0.00 W/m2
03:54 -8.8 °C -10.1 °C 34513.5 hPa West 2.6 km/h 5.1 km/h 87 % 0 mm 0.00 W/m2
03:59 -8.8 °C -10.1 °C 34513.5 hPa West 2.6 km/h 5.1 km/h 86 % 0 mm 0.00 W/m2
04:04 -8.8 °C -10.1 °C 34510.1 hPa West 2.6 km/h 5.1 km/h 86 % 0 mm 0.00 W/m2
04:09 -8.8 °C -10.1 °C 34506.7 hPa West 2.6 km/h 2.6 km/h 86 % 0 mm 0.00 W/m2
04:14 -8.8 °C -10.1 °C 34506.7 hPa West 2.6 km/h 5.1 km/h 86 % 0 mm 0.00 W/m2
04:19 -8.8 °C -10.1 °C 34510.1 hPa West 2.6 km/h 2.6 km/h 86 % 0 mm 0.00 W/m2
04:24 -8.8 °C -10.2 °C 34506.7 hPa Calm   5.1 km/h 85 % 0 mm 0.00 W/m2
04:29 -8.8 °C -10.2 °C 34506.7 hPa Calm   5.1 km/h 85 % 0 mm 0.00 W/m2
04:34 -8.8 °C -10.2 °C 34503.3 hPa Calm   2.6 km/h 85 % 0 mm 0.00 W/m2
04:39 -8.8 °C -10.2 °C 34500 hPa Calm   2.6 km/h 85 % 0 mm 0.00 W/m2
04:44 -8.8 °C -10.2 °C 34503.3 hPa Calm   2.6 km/h 85 % 0 mm 0.00 W/m2
04:49 -8.8 °C -10.2 °C 34500 hPa Calm   2.6 km/h 85 % 0 mm 0.00 W/m2
04:54 -8.8 °C -10.2 °C 34496.6 hPa Calm   5.1 km/h 85 % 0 mm 0.00 W/m2
04:59 -8.8 °C -10.2 °C 34496.6 hPa Calm   2.6 km/h 85 % 0 mm 0.00 W/m2
05:04 -8.8 °C -10.2 °C 34496.6 hPa Calm     85 % 0 mm 0.00 W/m2
05:09 -8.8 °C -10.2 °C 34493.2 hPa Calm     85 % 0 mm 0.00 W/m2
05:14 -8.8 °C -10.2 °C 34493.2 hPa Calm     85 % 0 mm 0.00 W/m2
05:19 -8.9 °C -10.3 °C 34489.8 hPa Calm   2.6 km/h 85 % 0 mm 0.00 W/m2
05:24 -8.9 °C -10.3 °C 34486.4 hPa Calm   2.6 km/h 85 % 0 mm 0.00 W/m2
05:29 -8.9 °C -10.3 °C 34486.4 hPa Calm   2.6 km/h 85 % 0 mm 0.00 W/m2
05:34 -9.1 °C -10.4 °C 34486.4 hPa Calm     85 % 0 mm 0.00 W/m2
05:39 -9.1 °C -10.5 °C 34486.4 hPa Calm     85 % 0 mm 0.00 W/m2
05:44 -9.2 °C -10.4 °C 34489.8 hPa Calm     86 % 0 mm 0.00 W/m2
05:49 -9.2 °C -10.5 °C 34486.4 hPa Calm     86 % 0 mm 0.00 W/m2
05:54 -9.3 °C -10.6 °C 34486.4 hPa Calm     86 % 0 mm 0.00 W/m2
05:59 -9.3 °C -10.6 °C 34486.4 hPa Calm     86 % 0 mm 0.00 W/m2
06:04 -9.3 °C -10.6 °C 34486.4 hPa Calm     86 % 0 mm 0.00 W/m2
Meteocoruña
Agradecimientos a Weather Underground - 1.75 mb